SH055 KNSE-KNSE

Flight info

Callsign SH055
Flight time 1h 8m
Altitude 12500
Route VFR
Aircraft TEX2/L-SDGRY/C

Departure

Time 2026-04-22 18:30
Airport Whiting Field Naval Air Station - North (KNSE)

Arrival

Time 2026-04-22 19:38
Airport Whiting Field Naval Air Station - North (KNSE)
Time Latitude Longitude Altitude Speed Heading
2026-04-22 18:21 30.71778 -87.02438 219 ft 0 kts 272°
2026-04-22 18:25 30.71778 -87.02439 191 ft 0 kts 279°
2026-04-22 18:25 30.71786 -87.02446 203 ft 4 kts 355°
2026-04-22 18:26 30.71812 -87.02447 205 ft 2 kts
2026-04-22 18:26 30.71827 -87.02447 191 ft 0 kts
2026-04-22 18:26 30.71828 -87.02447 191 ft 2 kts
2026-04-22 18:26 30.71856 -87.02440 191 ft 5 kts 17°
2026-04-22 18:27 30.71874 -87.02433 191 ft 1 kts 21°
2026-04-22 18:27 30.71878 -87.02431 191 ft 4 kts 16°
2026-04-22 18:27 30.72001 -87.02409 191 ft 21 kts 10°
2026-04-22 18:28 30.72077 -87.02339 195 ft 15 kts 82°
2026-04-22 18:28 30.72068 -87.02003 192 ft 49 kts 66°
2026-04-22 18:28 30.72311 -87.01895 191 ft 38 kts 11°
2026-04-22 18:28 30.72551 -87.01834 191 ft 20 kts 359°
2026-04-22 18:29 30.72613 -87.01933 200 ft 17 kts 239°
2026-04-22 18:29 30.72591 -87.01964 195 ft 7 kts 229°
2026-04-22 18:29 30.72332 -87.02271 196 ft 106 kts 217°
2026-04-22 18:29 30.71735 -87.03124 612 ft 143 kts 229°
2026-04-22 18:30 30.71166 -87.03908 817 ft 113 kts 210°
2026-04-22 18:30 30.70282 -87.03289 1074 ft 93 kts 83°
2026-04-22 18:30 30.70683 -87.02672 1111 ft 102 kts 60°
2026-04-22 18:31 30.71075 -87.01989 1011 ft 104 kts 61°
2026-04-22 18:31 30.71583 -87.01377 975 ft 116 kts 47°
2026-04-22 18:31 30.72241 -87.00733 1022 ft 123 kts 44°
2026-04-22 18:31 30.72892 -87.00140 1072 ft 112 kts 39°
2026-04-22 18:32 30.73610 -87.00156 1020 ft 120 kts 321°
2026-04-22 18:32 30.73586 -87.00908 913 ft 115 kts 222°
2026-04-22 18:32 30.72989 -87.01517 517 ft 119 kts 216°
2026-04-22 18:32 30.72429 -87.02191 225 ft 102 kts 226°
2026-04-22 18:33 30.71948 -87.02776 304 ft 121 kts 217°
2026-04-22 18:33 30.71292 -87.03463 669 ft 111 kts 200°
2026-04-22 18:33 30.71285 -87.04220 858 ft 132 kts 315°
2026-04-22 18:33 30.71973 -87.04965 1239 ft 132 kts 313°
2026-04-22 18:34 30.72616 -87.05653 1209 ft 121 kts 318°
2026-04-22 18:34 30.73308 -87.06077 1034 ft 120 kts 23°
2026-04-22 18:34 30.73664 -87.05418 1235 ft 99 kts 40°
2026-04-22 18:34 30.74326 -87.04979 1247 ft 113 kts 47°
2026-04-22 18:35 30.74443 -87.04099 1129 ft 127 kts 133°
2026-04-22 18:35 30.73746 -87.03591 714 ft 107 kts 145°
2026-04-22 18:35 30.73211 -87.03041 319 ft 99 kts 136°
2026-04-22 18:35 30.72746 -87.02540 212 ft 75 kts 140°
2026-04-22 18:36 30.72392 -87.02160 192 ft 94 kts 136°
2026-04-22 18:36 30.71864 -87.01583 514 ft 113 kts 134°
2026-04-22 18:36 30.71280 -87.00761 1081 ft 139 kts 121°
2026-04-22 18:36 30.71029 -86.99727 1203 ft 118 kts 96°
2026-04-22 18:37 30.71487 -86.98989 1124 ft 137 kts 20°
2026-04-22 18:37 30.72441 -86.99154 1209 ft 138 kts 326°
2026-04-22 18:37 30.73123 -86.99943 1127 ft 142 kts 310°
2026-04-22 18:37 30.73858 -87.00845 1125 ft 167 kts 311°
2026-04-22 18:38 30.74676 -87.01816 1318 ft 167 kts 313°
2026-04-22 18:38 30.75164 -87.02889 1300 ft 140 kts 266°
2026-04-22 18:38 30.74710 -87.03757 1112 ft 136 kts 202°
2026-04-22 18:39 30.73338 -87.03190 366 ft 99 kts 137°
2026-04-22 18:39 30.72882 -87.02688 200 ft 74 kts 138°
2026-04-22 18:39 30.72477 -87.02254 201 ft 113 kts 137°
2026-04-22 18:39 30.71962 -87.01686 522 ft 100 kts 131°
2026-04-22 18:40 30.71382 -87.00894 913 ft 153 kts 130°
2026-04-22 18:40 30.70756 -86.99926 1361 ft 135 kts 118°
2026-04-22 18:40 30.70904 -86.98813 1250 ft 164 kts 58°
2026-04-22 18:40 30.71949 -86.98189 1212 ft 181 kts 359°
2026-04-22 18:41 30.73001 -86.98830 1313 ft 158 kts 309°
2026-04-22 18:41 30.73677 -86.99745 1238 ft 143 kts 303°
2026-04-22 18:41 30.74279 -87.00684 1244 ft 147 kts 306°
2026-04-22 18:41 30.74936 -87.01611 1205 ft 151 kts 307°
2026-04-22 18:42 30.75429 -87.02624 1231 ft 138 kts 263°
2026-04-22 18:42 30.74932 -87.03531 1082 ft 137 kts 220°
2026-04-22 18:42 30.74072 -87.03781 828 ft 138 kts 160°
2026-04-22 18:42 30.73346 -87.03204 402 ft 113 kts 139°
2026-04-22 18:43 30.72813 -87.02617 206 ft 91 kts 140°
2026-04-22 18:43 30.72423 -87.02195 192 ft 88 kts 138°
2026-04-22 18:43 30.71799 -87.01549 372 ft 146 kts 139°
2026-04-22 18:43 30.70973 -87.00684 911 ft 167 kts 134°
2026-04-22 18:44 30.70382 -86.99571 1256 ft 159 kts 105°
2026-04-22 18:44 30.70652 -86.98344 1222 ft 167 kts 56°
2026-04-22 18:44 30.71792 -86.97931 1160 ft 197 kts 345°
2026-04-22 18:44 30.72954 -86.98867 1205 ft 211 kts 314°
2026-04-22 18:45 30.73981 -87.00084 1311 ft 204 kts 310°
2026-04-22 18:45 30.74850 -87.01166 1337 ft 159 kts 312°
2026-04-22 18:45 30.75560 -87.02013 1185 ft 139 kts 304°
2026-04-22 18:45 30.75681 -87.03140 1099 ft 149 kts 250°
2026-04-22 18:46 30.75085 -87.04029 832 ft 134 kts 202°
2026-04-22 18:46 30.74168 -87.03869 599 ft 134 kts 150°
2026-04-22 18:46 30.73424 -87.03265 337 ft 133 kts 140°
2026-04-22 18:46 30.72792 -87.02594 201 ft 101 kts 140°
2026-04-22 18:47 30.72345 -87.02113 192 ft 105 kts 140°
2026-04-22 18:47 30.71618 -87.01354 440 ft 163 kts 140°
2026-04-22 18:47 30.70767 -87.00368 971 ft 181 kts 123°
2026-04-22 18:47 30.70482 -86.99048 1242 ft 156 kts 80°
2026-04-22 18:48 30.71172 -86.98060 1143 ft 173 kts 28°
2026-04-22 18:48 30.72408 -86.97954 1098 ft 190 kts 334°
2026-04-22 18:48 30.73288 -86.99060 1160 ft 187 kts 303°
2026-04-22 18:48 30.74020 -87.00177 1261 ft 166 kts 306°
2026-04-22 18:49 30.74677 -87.01129 1181 ft 135 kts 306°
2026-04-22 18:49 30.75278 -87.01914 1100 ft 125 kts 310°
2026-04-22 18:49 30.75607 -87.02783 906 ft 120 kts 258°
2026-04-22 18:49 30.75140 -87.03560 767 ft 123 kts 210°
2026-04-22 18:50 30.74338 -87.03857 649 ft 129 kts 171°
2026-04-22 18:50 30.73563 -87.03400 414 ft 123 kts 146°
2026-04-22 18:50 30.72956 -87.02775 214 ft 111 kts 138°
2026-04-22 18:50 30.72518 -87.02303 192 ft 66 kts 139°
2026-04-22 18:51 30.72044 -87.01785 266 ft 131 kts 136°
2026-04-22 18:51 30.71303 -87.00926 781 ft 163 kts 139°
2026-04-22 18:51 30.70434 -86.99938 1212 ft 182 kts 131°
2026-04-22 18:51 30.70169 -86.98629 1219 ft 174 kts 76°
2026-04-22 18:52 30.70932 -86.97554 1167 ft 180 kts 38°
2026-04-22 18:52 30.72014 -86.96657 1172 ft 192 kts 38°
2026-04-22 18:52 30.73070 -86.95816 1277 ft 175 kts 25°
2026-04-22 18:52 30.74180 -86.95933 1084 ft 159 kts 322°
2026-04-22 18:53 30.74852 -86.96865 1101 ft 154 kts 299°
2026-04-22 18:53 30.75415 -86.97755 1257 ft 123 kts 290°
2026-04-22 18:53 30.75223 -86.98688 1223 ft 138 kts 221°
2026-04-22 18:53 30.74569 -86.99509 956 ft 135 kts 221°
2026-04-22 18:54 30.73908 -87.00307 691 ft 140 kts 222°
2026-04-22 18:54 30.73254 -87.01132 408 ft 141 kts 222°
2026-04-22 18:54 30.72636 -87.01936 240 ft 110 kts 226°
2026-04-22 18:54 30.72097 -87.02600 427 ft 131 kts 222°
2026-04-22 18:55 30.71361 -87.03537 783 ft 171 kts 227°
2026-04-22 18:55 30.70460 -87.04274 1124 ft 154 kts 180°
2026-04-22 18:55 30.69818 -87.03569 1318 ft 138 kts 94°
2026-04-22 18:55 30.70430 -87.02636 1105 ft 157 kts 46°
2026-04-22 18:56 30.71196 -87.01811 1022 ft 137 kts 46°
2026-04-22 18:56 30.71816 -87.00993 981 ft 136 kts 56°
2026-04-22 18:56 30.72349 -87.00075 1106 ft 143 kts 59°
2026-04-22 18:56 30.73072 -86.99455 1203 ft 131 kts
2026-04-22 18:57 30.73700 -87.00092 836 ft 134 kts 270°
2026-04-22 18:57 30.73306 -87.01099 520 ft 145 kts 220°
2026-04-22 18:57 30.72621 -87.01925 233 ft 139 kts 220°
2026-04-22 18:57 30.72114 -87.02584 193 ft 83 kts 221°
2026-04-22 18:58 30.71818 -87.02908 196 ft 58 kts 229°
2026-04-22 18:58 30.71378 -87.03537 304 ft 136 kts 226°
2026-04-22 18:58 30.70511 -87.04245 705 ft 173 kts 185°
2026-04-22 18:58 30.69629 -87.03460 1211 ft 181 kts 106°
2026-04-22 18:59 30.70115 -87.02145 1183 ft 191 kts 40°
2026-04-22 18:59 30.71157 -87.01246 1049 ft 179 kts 44°
2026-04-22 18:59 30.71933 -87.00399 1062 ft 143 kts 48°
2026-04-22 18:59 30.72593 -86.99618 1108 ft 131 kts 52°
2026-04-22 19:00 30.73443 -86.99114 1079 ft 156 kts 352°
2026-04-22 19:00 30.74127 -86.99983 1087 ft 154 kts 261°
2026-04-22 19:00 30.73524 -87.00856 659 ft 138 kts 214°
2026-04-22 19:00 30.72854 -87.01630 285 ft 140 kts 226°
2026-04-22 19:01 30.72311 -87.02356 204 ft 97 kts 229°
2026-04-22 19:01 30.71768 -87.03077 465 ft 153 kts 226°
2026-04-22 19:01 30.71344 -87.04335 965 ft 185 kts 273°
2026-04-22 19:01 30.72146 -87.05475 1756 ft 197 kts 337°
2026-04-22 19:02 30.73461 -87.05677 2750 ft 181 kts
2026-04-22 19:02 30.74640 -87.05822 4015 ft 167 kts 351°
2026-04-22 19:02 30.75405 -87.05986 4734 ft 170 kts 351°
2026-04-22 19:02 30.76578 -87.06265 5768 ft 174 kts 349°
2026-04-22 19:03 30.77785 -87.06529 6738 ft 176 kts 354°
2026-04-22 19:03 30.78991 -87.06720 7809 ft 173 kts 350°
2026-04-22 19:03 30.80179 -87.06976 8746 ft 179 kts 348°
2026-04-22 19:03 30.81386 -87.07278 9830 ft 172 kts 344°
2026-04-22 19:04 30.82552 -87.07625 10507 ft 175 kts 345°
2026-04-22 19:04 30.83768 -87.07954 10553 ft 178 kts 346°
2026-04-22 19:04 30.84975 -87.08278 10578 ft 178 kts 343°
2026-04-22 19:04 30.86204 -87.08650 10503 ft 189 kts 342°
2026-04-22 19:05 30.87481 -87.09073 10538 ft 196 kts 341°
2026-04-22 19:05 30.88777 -87.09649 10597 ft 204 kts 335°
2026-04-22 19:05 30.90175 -87.10391 10559 ft 229 kts 333°
2026-04-22 19:05 30.91601 -87.11216 10517 ft 238 kts 331°
2026-04-22 19:06 30.93102 -87.12138 10480 ft 248 kts 331°
2026-04-22 19:06 30.94397 -87.12834 12056 ft 149 kts 346°
2026-04-22 19:06 30.95147 -87.12945 13024 ft 85 kts 15°
2026-04-22 19:07 30.96377 -87.13741 10543 ft 177 kts 301°
2026-04-22 19:07 30.97188 -87.14722 10467 ft 173 kts 323°
2026-04-22 19:07 30.98257 -87.15481 10590 ft 187 kts 328°
2026-04-22 19:07 30.99569 -87.15777 10497 ft 206 kts 354°
2026-04-22 19:08 31.01111 -87.15930 10622 ft 236 kts 352°
2026-04-22 19:08 31.02331 -87.16046 12369 ft 42 kts 178°
2026-04-22 19:08 31.01537 -87.15760 12384 ft 162 kts 162°
2026-04-22 19:08 31.00410 -87.15274 12596 ft 184 kts 165°
2026-04-22 19:09 30.99046 -87.14687 12613 ft 230 kts 162°
2026-04-22 19:09 30.97455 -87.13993 12623 ft 259 kts 162°
2026-04-22 19:09 30.96816 -87.13506 14616 ft 120 kts 16°
2026-04-22 19:09 30.97929 -87.13042 14381 ft 204 kts 10°
2026-04-22 19:10 30.99429 -87.12628 14531 ft 238 kts
2026-04-22 19:10 31.01174 -87.12255 14097 ft 278 kts
2026-04-22 19:10 31.02701 -87.11962 15475 ft 69 kts 195°
2026-04-22 19:10 31.01624 -87.12323 15655 ft 198 kts 204°
2026-04-22 19:11 31.01795 -87.12062 12661 ft 248 kts 30°
2026-04-22 19:11 31.03172 -87.10954 12748 ft 233 kts 29°
2026-04-22 19:11 31.04654 -87.10510 12472 ft 228 kts 349°
2026-04-22 19:11 31.06196 -87.11203 12251 ft 249 kts 328°
2026-04-22 19:12 31.07755 -87.12293 12082 ft 268 kts 324°
2026-04-22 19:12 31.08613 -87.12952 14518 ft 84 kts 210°
2026-04-22 19:12 31.08329 -87.12529 12412 ft 255 kts 84°
2026-04-22 19:12 31.08735 -87.11805 13935 ft 89 kts 22°
2026-04-22 19:13 31.08324 -87.12446 13699 ft 41 kts 80°
2026-04-22 19:13 31.08114 -87.12040 12578 ft 153 kts 346°
2026-04-22 19:13 31.08766 -87.12114 14290 ft 55 kts 293°
2026-04-22 19:13 31.08456 -87.11810 12326 ft 208 kts 144°
2026-04-22 19:14 31.07394 -87.10791 12081 ft 197 kts 143°
2026-04-22 19:14 31.06326 -87.09800 11831 ft 188 kts 145°
2026-04-22 19:14 31.05402 -87.08585 9218 ft 226 kts 121°
2026-04-22 19:14 31.04518 -87.06991 6738 ft 236 kts 154°
2026-04-22 19:15 31.03686 -87.07413 5760 ft 224 kts 252°
2026-04-22 19:15 31.05014 -87.09585 5162 ft 267 kts 322°
2026-04-22 19:15 31.06471 -87.10972 5158 ft 276 kts 319°
2026-04-22 19:15 31.07960 -87.12445 5223 ft 267 kts 319°
2026-04-22 19:16 31.08427 -87.13259 7689 ft 117 kts 249°
2026-04-22 19:16 31.08347 -87.12537 7608 ft 55 kts 22°
2026-04-22 19:16 31.08199 -87.12531 6196 ft 198 kts 203°
2026-04-22 19:16 31.07709 -87.12533 6494 ft 123 kts 356°
2026-04-22 19:17 31.08303 -87.12635 7765 ft 104 kts 242°
2026-04-22 19:17 31.07949 -87.12062 5980 ft 207 kts 117°
2026-04-22 19:17 31.07390 -87.10676 6258 ft 177 kts 116°
2026-04-22 19:17 31.06891 -87.09395 6291 ft 158 kts 120°
2026-04-22 19:18 31.06394 -87.08626 7853 ft 101 kts 163°
2026-04-22 19:18 31.05861 -87.08311 9062 ft 87 kts 174°
2026-04-22 19:18 31.05539 -87.08176 9706 ft 10 kts 287°
2026-04-22 19:18 31.06370 -87.08953 9175 ft 165 kts 330°
2026-04-22 19:19 31.07126 -87.09390 9916 ft 94 kts
2026-04-22 19:19 31.07597 -87.09361 8093 ft 50 kts 82°
2026-04-22 19:19 31.07651 -87.07981 7370 ft 161 kts 97°
2026-04-22 19:19 31.07557 -87.07034 8065 ft 91 kts 133°
2026-04-22 19:20 31.07357 -87.06479 7167 ft 50 kts 169°
2026-04-22 19:20 31.06544 -87.06791 5053 ft 191 kts 199°
2026-04-22 19:20 31.05451 -87.06951 5135 ft 167 kts 156°
2026-04-22 19:20 31.04703 -87.05888 4992 ft 196 kts 111°
2026-04-22 19:21 31.04110 -87.04735 6218 ft 151 kts 199°
2026-04-22 19:21 31.03130 -87.04209 5219 ft 182 kts 120°
2026-04-22 19:21 31.03531 -87.02796 5474 ft 152 kts 26°
2026-04-22 19:21 31.04790 -87.02999 5515 ft 174 kts 315°
2026-04-22 19:22 31.05504 -87.04340 5143 ft 214 kts 300°
2026-04-22 19:22 31.06315 -87.05860 5148 ft 227 kts 302°
2026-04-22 19:22 31.07126 -87.07282 5052 ft 200 kts 301°
2026-04-22 19:22 31.07850 -87.08542 5201 ft 173 kts 301°
2026-04-22 19:23 31.08421 -87.09674 5326 ft 155 kts 295°
2026-04-22 19:23 31.08947 -87.10757 5256 ft 153 kts 300°
2026-04-22 19:23 31.09533 -87.11753 5251 ft 144 kts 303°
2026-04-22 19:23 31.09866 -87.12769 5143 ft 138 kts 261°
2026-04-22 19:24 31.09446 -87.13792 4818 ft 140 kts 213°
2026-04-22 19:24 31.08472 -87.14126 4280 ft 165 kts 172°
2026-04-22 19:24 31.07407 -87.13533 3903 ft 179 kts 139°
2026-04-22 19:24 31.06640 -87.12335 3474 ft 191 kts 122°
2026-04-22 19:25 31.06040 -87.10920 2852 ft 196 kts 119°
2026-04-22 19:25 31.05447 -87.09604 3023 ft 174 kts 121°
2026-04-22 19:25 31.04899 -87.08398 3043 ft 166 kts 120°
2026-04-22 19:25 31.04360 -87.07233 3170 ft 157 kts 129°
2026-04-22 19:26 31.03551 -87.06369 3000 ft 165 kts 144°
2026-04-22 19:26 31.02642 -87.05512 2971 ft 168 kts 143°
2026-04-22 19:26 31.01744 -87.04672 3021 ft 162 kts 144°
2026-04-22 19:26 31.00844 -87.03883 3031 ft 163 kts 146°
2026-04-22 19:27 30.99914 -87.03105 3083 ft 164 kts 147°
2026-04-22 19:27 30.98948 -87.02349 3028 ft 171 kts 148°
2026-04-22 19:27 30.97927 -87.01579 2991 ft 176 kts 149°
2026-04-22 19:27 30.96925 -87.00803 3071 ft 176 kts 145°
2026-04-22 19:28 30.95944 -86.99922 3067 ft 180 kts 142°
2026-04-22 19:28 30.94959 -86.99012 3048 ft 182 kts 142°
2026-04-22 19:28 30.93952 -86.98094 3008 ft 184 kts 143°
2026-04-22 19:28 30.92931 -86.97189 3023 ft 185 kts 144°
2026-04-22 19:29 30.91897 -86.96313 3053 ft 183 kts 144°
2026-04-22 19:29 30.90862 -86.95441 3009 ft 185 kts 144°
2026-04-22 19:29 30.89816 -86.94580 3088 ft 182 kts 146°
2026-04-22 19:29 30.88781 -86.93719 3055 ft 184 kts 146°
2026-04-22 19:30 30.88086 -86.93163 3037 ft 181 kts 147°
2026-04-22 19:30 30.86570 -86.92614 3018 ft 179 kts 190°
2026-04-22 19:30 30.85370 -86.93045 3014 ft 178 kts 195°
2026-04-22 19:30 30.84235 -86.93518 3049 ft 169 kts 198°
2026-04-22 19:31 30.83143 -86.94022 2861 ft 164 kts 197°
2026-04-22 19:31 30.82087 -86.94431 2353 ft 159 kts 194°
2026-04-22 19:31 30.81055 -86.94789 2058 ft 145 kts 194°
2026-04-22 19:31 30.80139 -86.95141 1766 ft 130 kts 195°
2026-04-22 19:32 30.79211 -86.95502 1652 ft 143 kts 194°
2026-04-22 19:32 30.78268 -86.95901 1607 ft 144 kts 197°
2026-04-22 19:32 30.77444 -86.96538 1541 ft 144 kts 226°
2026-04-22 19:32 30.76708 -86.97247 1604 ft 136 kts 212°
2026-04-22 19:33 30.75917 -86.97968 1495 ft 149 kts 217°
2026-04-22 19:33 30.75188 -86.98787 1366 ft 138 kts 223°
2026-04-22 19:33 30.74540 -86.99584 1070 ft 132 kts 223°
2026-04-22 19:33 30.73908 -87.00351 809 ft 138 kts 223°
2026-04-22 19:34 30.73178 -87.01232 574 ft 157 kts 221°
2026-04-22 19:34 30.72477 -87.02139 541 ft 146 kts 225°
2026-04-22 19:34 30.71822 -87.02995 566 ft 139 kts 220°
2026-04-22 19:34 30.71183 -87.03844 613 ft 137 kts 229°
2026-04-22 19:35 30.71012 -87.04890 514 ft 149 kts 282°
2026-04-22 19:35 30.71566 -87.05891 657 ft 144 kts 309°
2026-04-22 19:35 30.72082 -87.06399 699 ft 148 kts 320°
2026-04-22 19:35 30.73244 -87.07445 708 ft 161 kts 327°
2026-04-22 19:36 30.74275 -87.07393 622 ft 157 kts 44°
2026-04-22 19:36 30.75047 -87.06621 832 ft 139 kts 49°
2026-04-22 19:36 30.75232 -87.05717 859 ft 125 kts 119°
2026-04-22 19:36 30.74836 -87.04860 752 ft 117 kts 129°
2026-04-22 19:37 30.74300 -87.04196 546 ft 110 kts 138°
2026-04-22 19:37 30.73731 -87.03583 385 ft 113 kts 140°
2026-04-22 19:37 30.73149 -87.02969 232 ft 111 kts 140°
2026-04-22 19:37 30.72679 -87.02458 197 ft 70 kts 138°
2026-04-22 19:38 30.72501 -87.02246 200 ft 1 kts 150°
2026-04-22 19:38 30.72395 -87.02166 201 ft 34 kts 142°
2026-04-22 19:38 30.72249 -87.02006 192 ft 27 kts 140°
2026-04-22 19:39 30.72113 -87.01955 191 ft 18 kts 204°
2026-04-22 19:39 30.72006 -87.01967 191 ft 13 kts 142°
2026-04-22 19:39 30.71933 -87.01920 191 ft 9 kts 216°
2026-04-22 19:39 30.71927 -87.01986 200 ft 8 kts 273°
2026-04-22 19:40 30.71927 -87.02084 201 ft 17 kts 275°
2026-04-22 19:40 30.71933 -87.02245 191 ft 22 kts 274°
2026-04-22 19:40 30.71925 -87.02391 203 ft 11 kts 227°
2026-04-22 19:40 30.71821 -87.02402 191 ft 16 kts 182°
2026-04-22 19:41 30.71784 -87.02392 191 ft 3 kts 90°
2026-04-22 19:41 30.71784 -87.02380 197 ft 3 kts 93°
2026-04-22 19:41 30.71784 -87.02375 196 ft 0 kts 92°